Weather History for Tapachula Airport, Mexico

Change the Weather History Date:

Sunday, June 30, 2013

  Actual Average Record
Temperature  
Mean Temperature 78 °F -  
Max Temperature 80 °F 86 °F 91 °F (2014)
Min Temperature 75 °F 73 °F 71 °F (2012)
Cooling Degree Days 12    
Growing Degree Days 28 (Base 50)    
Moisture  
Dew Point 75 °F    
Average Humidity 91    
Maximum Humidity 94    
Minimum Humidity 84    
Precipitation  
Precipitation 0.00 in - - ()
Sea Level Pressure  
Sea Level Pressure 29.88 in    
Wind  
Wind Speed 1 mph ()    
Max Wind Speed 9 mph    
Max Gust Speed -    
Visibility 7.4 miles    
Events Rain    
Averages and records for this station are not official NWS values.
T = Trace of Precipitation, MM = Missing Value Source: Averaged Metar Reports

Daily Weather History Graph

Daily Weather History Graph

Search for Another Location

Airport:

Trip Planner

Search our weather history database for the weather conditions in past years. The results will help you decide how hot, cold, wet, or windy it might be!

Date:

Astronomy

Jun. 30, 2013 Rise Set
Actual Time 6:43 AM CDT 7:42 PM CDT
Civil Twilight 6:19 AM CDT 8:06 PM CDT
Nautical Twilight 5:52 AM CDT 8:34 PM CDT
Astronomical Twilight 5:23 AM CDT 9:02 PM CDT
Moon 12:58 AM CDT (6/30) 1:36 PM CDT (6/30)
Length of Visible Light 13h 46m
Length of Day
12h 59m
Last Quarter, 45% of the Moon is Illuminated
Jun 30
Last Quarter
Jul 8
New
Jul 15
First Quarter
Jul 22
Full
Jul 29
Last Quarter

Hourly Weather History & Observations

Time (CDT) Temp. Heat Index Dew Point Humidity Pressure Visibility Wind Dir Wind Speed Gust Speed Precip Events Conditions
12:40 AM 78.8 °F - 75.2 °F 89% 29.89 in 8.0 mi Calm Calm - N/A   Mostly Cloudy
1:40 AM 77.0 °F - 75.2 °F 94% 29.91 in 8.0 mi Calm Calm - N/A   Mostly Cloudy
2:40 AM 77.0 °F - 75.2 °F 94% 29.87 in 8.0 mi Calm Calm - N/A   Mostly Cloudy
3:40 AM 77.0 °F - 75.2 °F 94% 29.88 in 8.0 mi Calm Calm - N/A   Mostly Cloudy
4:40 AM 77.0 °F - 73.4 °F 89% 29.84 in 8.0 mi Calm Calm - N/A   Mostly Cloudy
5:40 AM 77.0 °F - 73.4 °F 89% 29.85 in 8.0 mi Calm Calm - N/A   Mostly Cloudy
6:40 AM 77.0 °F - 73.4 °F 89% 29.81 in 8.0 mi Calm Calm - N/A   Mostly Cloudy
7:40 AM 75.2 °F - 71.6 °F 89% 29.90 in 10.0 mi Calm Calm - N/A   Mostly Cloudy
8:40 AM 77.0 °F - 73.4 °F 89% 29.90 in 10.0 mi Calm Calm - N/A   Mostly Cloudy
9:45 AM 80.6 °F 86.2 °F 75.2 °F 84% 29.86 in 10.0 mi Calm Calm - N/A   Mostly Cloudy
10:40 AM 80.6 °F 86.2 °F 75.2 °F 84% 29.93 in 6.0 mi North - - N/A   Overcast
11:15 AM 77.0 °F - 75.2 °F 94% 29.94 in 3.0 mi South 9.2 mph - N/A Rain Rain Showers
11:40 AM 75.2 °F - 73.4 °F 94% 29.95 in 3.0 mi South 8.1 mph - N/A Rain Rain
12:55 PM 75.2 °F - 73.4 °F 94% 29.88 in 5.0 mi WSW 8.1 mph - N/A   Overcast
1:40 PM 77.0 °F - 75.2 °F 94% 29.93 in 7.0 mi Calm Calm - N/A   Overcast
2:40 PM 77.0 °F - 75.2 °F 94% 29.92 in 7.0 mi Calm Calm - N/A   Overcast
3:42 PM 75.2 °F - 73.4 °F 94% 29.86 in 7.0 mi Calm Calm - N/A   Overcast
4:40 PM 77.0 °F - 75.2 °F 94% 29.88 in 7.0 mi Calm Calm - N/A   Overcast
5:40 PM 78.8 °F - 75.2 °F 89% 29.85 in 7.0 mi Calm Calm - N/A   Overcast
6:40 PM 78.8 °F - 75.2 °F 89% 29.88 in 7.0 mi Calm Calm - N/A   Overcast
7:40 PM 78.8 °F - 75.2 °F 89% 29.84 in 8.0 mi Calm Calm - N/A   Mostly Cloudy
8:40 PM 78.8 °F - 75.2 °F 89% 29.87 in 8.0 mi Calm Calm - N/A   Mostly Cloudy
9:40 PM 77.0 °F - 75.2 °F 94% 29.84 in 8.0 mi Calm Calm - N/A   Scattered Clouds
10:40 PM 77.0 °F - 75.2 °F 94% 29.89 in 8.0 mi Calm Calm - N/A   Scattered Clouds
11:40 PM 77.0 °F - 75.2 °F 94% 29.92 in 8.0 mi Calm Calm - N/A   Scattered Clouds